This demonstration page uses our WeatherBlox Daily Observations layout. Learn more.

Left ArrowRight Arrow

40.92945, -100.16068

Hourly Observations for April 23, 2015

Temp ( °F °C ) Dew Point ( °F °C ) Humidity (%) Winds ( mph kmh ) Pressure ( in mb ) Visibility ( mi km ) Precip ( " mm )
12:15 am 00:15 Clear 44 6.5 32 undefined 64 64 SSE 10 17 30.00 1016 10 16 N/A
12:35 am 00:35 Clear 44 6.4 32 undefined 64 64 SSE 10 17 30.03 1017 10 16 N/A
12:55 am 00:55 Clear 43 6.3 32 -0.1 64 64 SSE 12 19 30.03 1017 10 16 N/A
1:15 am 01:15 Clear 43 6 32 undefined 66 66 SSE 10 17 30.03 1017 10 16 N/A
1:35 am 01:35 Clear 42 5.8 32 -0.1 66 66 SSE 10 17 30.03 1017 10 16 N/A
1:55 am 01:55 Clear 42 5.5 32 -0.2 67 67 SSE 9 15 30.03 1017 10 16 N/A
2:15 am 02:15 Clear 42 5.5 32 -0.2 67 67 SSE 9 15 30.03 1017 10 16 N/A
2:35 am 02:35 Clear 39 4.1 32 -0.2 74 74 SSE 8 13 30.03 1017 10 16 N/A
2:55 am 02:55 Clear 40 4.7 31 -0.3 70 70 SSE 9 15 30.03 1017 10 16 N/A
3:15 am 03:15 Clear 41 5 31 -0.5 68 68 S 12 19 30.03 1017 10 16 N/A
3:35 am 03:35 Clear 41 5.1 31 -0.7 66 66 S 12 19 30.00 1016 10 16 N/A
3:55 am 03:55 Clear 41 5.2 30 -0.9 65 65 SSE 13 20 30.00 1016 10 16 N/A
4:15 am 04:15 Clear 41 5 30 -1 66 66 SSE 10 17 30.00 1016 10 16 N/A
4:35 am 04:35 Clear 40 4.7 30 -0.9 67 67 SSE 10 17 30.00 1016 10 16 N/A
4:55 am 04:55 Clear 40 4.5 31 -0.8 69 69 SSE 10 17 30.03 1017 10 16 N/A
5:15 am 05:15 Clear 40 4.7 30 -1 67 67 SSE 9 15 30.03 1017 10 16 N/A
5:35 am 05:35 Clear 40 4.2 30 -1 69 69 SSE 9 15 30.03 1017 10 16 N/A
5:55 am 05:55 Clear 40 4.4 30 -1 68 68 S 9 15 30.03 1017 10 16 N/A
6:15 am 06:15 Clear 40 4.7 30 -1.2 66 66 SSE 12 19 30.03 1017 10 16 N/A
6:35 am 06:35 Clear 40 4.5 30 -1.1 67 67 S 10 17 30.03 1017 10 16 N/A
6:55 am 06:55 Sunny 39 4 30 -1 70 70 SSE 9 15 30.03 1017 10 16 N/A
7:15 am 07:15 Sunny 40 4.2 31 -0.6 71 71 SSE 8 13 30.03 1017 10 16 N/A
7:35 am 07:35 Sunny 40 4.7 31 -0.4 70 70 SSE 9 15 30.03 1017 10 16 N/A
7:55 am 07:55 Sunny 42 5.5 32 undefined 68 68 SSE 9 15 30.03 1017 10 16 N/A
8:15 am 08:15 Sunny 43 6.1 32 0.2 66 66 SSE 9 15 30.03 1017 10 16 N/A
8:35 am 08:35 Sunny 45 7.3 34 1.1 65 65 SSE 12 19 30.00 1016 10 16 N/A
8:55 am 08:55 Partly Cloudy 47 8.6 35 1.5 61 61 SSE 15 24 30.00 1016 10 16 N/A
9:15 am 09:15 Mostly Cloudy 49 9.6 36 2 59 59 SSE 16 26 29.97 1015 10 16 N/A
9:35 am 09:35 Cloudy 50 10.1 36 2.1 58 58 SSE 16 26 29.97 1015 10 16 N/A
9:55 am 09:55 Cloudy 50 10.1 36 2.2 58 58 SSE 16 26 29.97 1015 10 16 N/A
10:15 am 10:15 Cloudy 52 10.9 37 2.8 58 58 SSE 17 28 29.97 1015 10 16 N/A
10:35 am 10:35 Cloudy 53 11.5 38 3.1 57 57 SSE 15 24 29.97 1015 10 16 N/A
10:55 am 10:55 Cloudy 55 13 39 4.1 55 55 SSE 15 24 29.94 1014 10 16 N/A
11:15 am 11:15 Cloudy 56 13.5 40 4.4 54 54 SSE 16 26 29.94 1014 10 16 N/A
11:35 am 11:35 Mostly Cloudy 58 14.5 42 5.4 55 55 SSE 15 24 29.94 1014 10 16 N/A
11:55 am 11:55 Mostly Cloudy 58 14.2 42 5.3 55 55 S 13 20 29.94 1014 10 16 N/A
12:15 pm 12:15 Cloudy 57 14 41 5 55 55 SSE 16 26 29.91 1013 10 16 N/A
12:35 pm 12:35 Cloudy 57 14 40 4.5 53 53 SSE 14 22 29.91 1013 10 16 N/A
12:55 pm 12:55 Cloudy 57 14.1 40 4.6 53 53 SSE 15 24 29.91 1013 10 16 N/A
1:15 pm 13:15 Cloudy 58 14.5 40 4.6 52 52 SSE 17 28 29.91 1013 10 16 N/A
1:35 pm 13:35 Cloudy 60 15.8 41 5.1 49 49 SSE 18 30 29.85 1011 10 16 N/A
1:55 pm 13:55 Cloudy 61 15.9 43 5.9 52 52 S 18 30 29.85 1011 10 16 N/A
2:15 pm 14:15 Cloudy 62 16.9 42 5.7 48 48 S 21 33 29.83 1010 10 16 N/A
2:35 pm 14:35 Partly Cloudy 64 18 43 6 46 46 SSE 22 35 29.83 1010 10 16 N/A
2:55 pm 14:55 Partly Cloudy 64 17.8 43 6.1 46 46 SSE 22 35 29.83 1010 10 16 N/A
3:15 pm 15:15 Partly Cloudy 65 18.3 44 6.9 48 48 SSE 18 30 29.80 1009 10 16 N/A
3:35 pm 15:35 Partly Cloudy 65 18.2 44 6.5 47 47 SSE 18 30 29.80 1009 10 16 N/A
3:55 pm 15:55 Sunny 67 19.3 44 6.9 45 45 S 17 28 29.74 1007 10 16 N/A
4:15 pm 16:15 Partly Cloudy 67 19.5 44 6.8 44 44 SSE 16 26 29.74 1007 10 16 N/A
4:35 pm 16:35 Partly Cloudy 65 18.5 44 6.6 46 46 SSE 21 33 29.74 1007 10 16 N/A
4:55 pm 16:55 Cloudy 68 19.9 45 7.3 44 44 S 21 33 29.74 1007 10 16 N/A
5:15 pm 17:15 Cloudy 66 18.9 45 7 46 46 S 20 31 29.74 1007 10 16 N/A
5:35 pm 17:35 Partly Cloudy with Nearby Thunderstorms 65 18.3 45 7.3 49 49 SSE 22 35 29.71 1006 10 16 N/A
5:55 pm 17:55 Sunny 67 19.5 45 7.2 45 45 SSE 23 37 29.71 1006 10 16 N/A
6:15 pm 18:15 Partly Cloudy 65 18.5 44 6.6 46 46 SSE 22 35 29.71 1006 10 16 N/A
6:35 pm 18:35 Sunny 65 18.6 44 6.8 46 46 SSE 22 35 29.68 1005 10 16 N/A
6:55 pm 18:55 Sunny 65 18.3 44 6.9 48 48 SSE 18 30 29.71 1006 10 16 N/A
7:15 pm 19:15 Sunny 64 17.7 45 7 50 50 SSE 20 31 29.71 1006 10 16 N/A
7:35 pm 19:35 Sunny 64 17.5 46 7.6 52 52 SSE 15 24 29.68 1005 10 16 N/A
7:55 pm 19:55 Partly Cloudy 62 16.6 44 6.9 53 53 SE 14 22 29.71 1006 10 16 N/A
8:15 pm 20:15 Sunny 61 16 45 7.3 57 57 SSE 12 19 29.71 1006 10 16 N/A
8:35 pm 20:35 Mostly Cloudy 60 15.7 46 7.8 60 60 SE 13 20 29.71 1006 10 16 N/A
8:55 pm 20:55 Cloudy 60 15.8 47 8.3 61 61 S 18 30 29.71 1006 10 16 N/A
9:15 pm 21:15 Cloudy 61 16 47 8.3 60 60 SSE 17 28 29.74 1007 10 16 N/A
9:35 pm 21:35 Partly Cloudy 60 15.5 46 8 61 61 SSE 15 24 29.74 1007 10 16 N/A
9:55 pm 21:55 Clear 58 14.6 47 8.2 66 66 SSE 15 24 29.74 1007 10 16 N/A
10:15 pm 22:15 Clear 58 14.3 47 8.2 67 67 SSE 10 17 29.77 1008 10 16 N/A
10:35 pm 22:35 Clear 57 13.7 47 8.2 70 70 S 9 15 29.80 1009 10 16 N/A
10:55 pm 22:55 Mostly Cloudy 57 14.1 46 8 67 67 S 10 17 29.80 1009 10 16 N/A
11:15 pm 23:15 Windy with Storms Likely 58 14.4 48 8.7 69 69 SSW 25 41 29.83 1010 10 16 N/A
11:35 pm 23:35 Cloudy with Drizzle 58 14.6 50 9.9 74 74 WSW 10 17 29.80 1009 10 16 N/A
11:55 pm 23:55 Cloudy with Drizzle 57 13.7 50 9.9 78 78 WSW 8 13 29.83 1010 10 16 N/A

Powered by AerisWeather